| time (UTC) | temp C | wind direction | speed KPH | gust KPH | rain 1hr cm | rain 24hr cm | rain mn cm | humidity % | barometer mb |
| 20260506224017 | 14 | 0.0 | 1.6 | 0.00 | 2.29 | 0.00 | 98 | 1011.8 | |
| 20260506223017 | 14 | 0.0 | 0.0 | 0.00 | 2.29 | 0.00 | 98 | 1011.7 | |
| 20260506222017 | 14 | 0.0 | 0.0 | 0.00 | 2.29 | 0.00 | 98 | 1011.7 | |
| 20260506221057 | 15 | 0.0 | 0.0 | 0.00 | 2.29 | 0.00 | 98 | 1011.7 | |
| 20260506220017 | 15 | 0.0 | 1.6 | 0.00 | 2.29 | 2.29 | 98 | 1011.6 | |
| 20260506215016 | 15 | 0.0 | 0.0 | 0.00 | 2.29 | 2.29 | 98 | 1011.6 | |
| 20260506214016 | 15 | 0.0 | 0.0 | 0.00 | 2.29 | 2.29 | 98 | 1011.6 | |
| 20260506213016 | 15 | 0.0 | 0.0 | 0.00 | 2.29 | 2.29 | 98 | 1011.7 | |
| 20260506212016 | 15 | 0.0 | 0.0 | 0.00 | 2.29 | 2.29 | 98 | 1011.8 | |
| 20260506211016 | 15 | 0.0 | 0.0 | 0.00 | 2.29 | 2.29 | 98 | 1011.8 | |
| 20260506210016 | 15 | 0.0 | 1.6 | 0.00 | 2.29 | 2.29 | 98 | 1011.7 | |
| 20260506205016 | 15 | 0.0 | 1.6 | 0.00 | 2.29 | 2.29 | 98 | 1011.6 | |
| 20260506204016 | 15 | 0.0 | 0.0 | 0.00 | 2.29 | 2.29 | 98 | 1011.5 | |
| 20260506203016 | 15 | 0.0 | 0.0 | 0.00 | 2.29 | 2.29 | 98 | 1011.6 | |
| 20260506202016 | 15 | 0.0 | 0.0 | 0.00 | 2.29 | 2.29 | 98 | 1011.5 | |
| 20260506201016 | 15 | 0.0 | 0.0 | 0.00 | 2.29 | 2.29 | 98 | 1011.4 | |
| 20260506200016 | 15 | 0.0 | 0.0 | 0.00 | 2.29 | 2.29 | 98 | 1011.4 | |
| 20260506195016 | 15 | 0.0 | 0.0 | 0.30 | 2.29 | 2.29 | 98 | 1011.2 | |
| 20260506194016 | 15 | 0.0 | 0.0 | 0.43 | 2.31 | 2.29 | 98 | 1011.2 | |
| 20260506193056 | 15 | 0.0 | 0.0 | 0.46 | 2.31 | 2.29 | 98 | 1011.0 | |
| 20260506192019 | 15 | 0.0 | 0.0 | 0.51 | 2.34 | 2.29 | 97 | 1011.1 | |
| 20260506191016 | 15 | 0.0 | 0.0 | 0.53 | 2.34 | 2.29 | 97 | 1011.1 | |
| 20260506190016 | 15 | 0.0 | 1.6 | 0.53 | 2.36 | 2.29 | 97 | 1010.9 | |
| 20260506185016 | 15 | 0.0 | 1.6 | 0.23 | 2.11 | 1.98 | 97 | 1010.9 | |
| 20260506184016 | 15 | 0.0 | 0.0 | 0.13 | 1.98 | 1.85 | 97 | 1010.9 | |
| 20260506183016 | 16 | 0.0 | 0.0 | 0.08 | 1.93 | 1.83 | 97 | 1010.8 | |
| 20260506182016 | 16 | 0.0 | 0.0 | 0.03 | 1.88 | 1.75 | 97 | 1010.8 | |
| 20260506181016 | 16 | 0.0 | 0.0 | 0.00 | 1.85 | 1.75 | 97 | 1010.8 | |
| 20260506180016 | 16 | 0.0 | 0.0 | 0.00 | 1.85 | 1.75 | 97 | 1010.7 | |
| 20260506175016 | 16 | 0.0 | 0.0 | 0.00 | 1.85 | 1.75 | 97 | 1010.9 | |
| 20260506174016 | 16 | 0.0 | 0.0 | 0.00 | 1.88 | 1.75 | 97 | 1010.8 | |
| 20260506173039 | 16 | 0.0 | 0.0 | 0.00 | 1.93 | 1.75 | 97 | 1010.8 | |
| 20260506172056 | 16 | 0.0 | 0.0 | 0.00 | 2.01 | 1.75 | 97 | 1010.6 | |
| 20260506171016 | 16 | 0.0 | 0.0 | 0.00 | 2.03 | 1.75 | 97 | 1010.5 | |
| 20260506165016 | 16 | 0.0 | 0.0 | 0.00 | 2.03 | 1.75 | 97 | 1010.5 | |
| 20260506164056 | 16 | 0.0 | 0.0 | 0.00 | 2.06 | 1.75 | 97 | 1010.7 | |
| 20260506163016 | 16 | 0.0 | 1.6 | 0.03 | 2.06 | 1.75 | 97 | 1010.7 | |
| 20260506162016 | 16 | 0.0 | 0.0 | 0.08 | 2.11 | 1.75 | 97 | 1010.7 | |
| 20260506161016 | 16 | 0.0 | 1.6 | 0.25 | 2.11 | 1.75 | 96 | 1010.5 | |
| 20260506160016 | 16 | 0.0 | 1.6 | 0.56 | 2.11 | 1.75 | 96 | 1010.6 | |
| 20260506155016 | 16 | 0.0 | 0.0 | 0.76 | 2.16 | 1.75 | 96 | 1010.6 | |
| 20260506154033 | 16 | 0.0 | 1.6 | 0.99 | 2.18 | 1.75 | 96 | 1010.5 | |
| 20260506153016 | 16 | 0.0 | 1.6 | 1.24 | 2.21 | 1.73 | 95 | 1010.5 | |
| 20260506152056 | 16 | 0.0 | 1.6 | 1.19 | 2.13 | 1.65 | 96 | 1010.7 | |
| 20260506151016 | 16 | 0.0 | 1.6 | 1.02 | 1.96 | 1.47 | 95 | 1010.7 | |
| 20260506150016 | 16 | 0.0 | 0.0 | 0.71 | 1.68 | 1.17 | 95 | 1010.8 | |
| 20260506145016 | 16 | 225 | 1.6 | 3.2 | 0.51 | 1.50 | 0.99 | 93 | 1010.6 |
| 20260506144016 | 17 | 0.0 | 0.0 | 0.28 | 1.27 | 0.71 | 91 | 1010.5 | |
| 20260506143016 | 17 | 0.0 | 0.0 | 0.03 | 1.02 | 0.48 | 90 | 1010.6 | |
| 20260506142016 | 17 | 0.0 | 0.0 | 0.03 | 1.02 | 0.46 | 91 | 1010.7 | |
| 20260506141015 | 17 | 0.0 | 1.6 | 0.05 | 1.04 | 0.46 | 91 | 1010.9 | |
| 20260506140056 | 17 | 0.0 | 0.0 | 0.05 | 1.09 | 0.46 | 92 | 1010.9 | |
| 20260506135055 | 16 | 0.0 | 0.0 | 0.05 | 1.12 | 0.46 | 92 | 1011.0 | |
| 20260506134016 | 16 | 0.0 | 1.6 | 0.05 | 1.14 | 0.46 | 92 | 1011.2 | |
| 20260506133016 | 16 | 0.0 | 0.0 | 0.05 | 1.14 | 0.46 | 91 | 1011.1 | |
| 20260506132016 | 16 | 0.0 | 0.0 | 0.03 | 1.14 | 0.43 | 89 | 1011.2 | |
| 20260506131016 | 17 | 315 | 1.6 | 3.2 | 0.00 | 1.14 | 0.43 | 90 | 1011.0 |
| 20260506130156 | 17 | 23 | 1.6 | 3.2 | 0.00 | 1.14 | 0.43 | 90 | 1011.2 |
| 20260506125316 | 17 | 293 | 1.6 | 1.6 | 0.00 | 1.17 | 0.43 | 90 | 1011.2 |
| 20260506124316 | 16 | 293 | 1.6 | 4.8 | 0.00 | 1.17 | 0.43 | 91 | 1011.4 |
| 20260506123315 | 16 | 270 | 3.2 | 4.8 | 0.05 | 1.17 | 0.43 | 92 | 1011.4 |
| 20260506122356 | 16 | 293 | 1.6 | 4.8 | 0.05 | 1.17 | 0.43 | 92 | 1011.4 |
| 20260506121316 | 16 | 0.0 | 1.6 | 0.05 | 1.17 | 0.43 | 91 | 1011.4 | |
| 20260506120316 | 17 | 0.0 | 6.4 | 0.05 | 1.17 | 0.43 | 91 | 1011.3 | |
| 20260506115356 | 17 | 225 | 4.8 | 11.3 | 0.15 | 1.17 | 0.43 | 94 | 1011.4 |
| 20260506114316 | 17 | 0.0 | 3.2 | 0.18 | 1.17 | 0.43 | 94 | 1011.3 | |
| 20260506113355 | 17 | 0.0 | 1.6 | 0.15 | 1.14 | 0.38 | 94 | 1011.3 | |
| 20260506112316 | 17 | 0.0 | 1.6 | 0.18 | 1.17 | 0.38 | 94 | 1011.4 | |
| 20260506111355 | 16 | 0.0 | 0.0 | 0.18 | 1.17 | 0.38 | 94 | 1011.4 | |
| 20260506110316 | 16 | 0.0 | 1.6 | 0.15 | 1.14 | 0.36 | 93 | 1011.4 | |
| 20260506105315 | 17 | 0.0 | 0.0 | 0.08 | 1.07 | 0.28 | 93 | 1011.4 | |
| 20260506104315 | 17 | 0.0 | 0.0 | 0.05 | 1.04 | 0.23 | 93 | 1011.6 | |
| 20260506103315 | 17 | 248 | 1.6 | 4.8 | 0.03 | 1.04 | 0.23 | 92 | 1011.7 |
| 20260506102315 | 17 | 0.0 | 1.6 | 0.00 | 1.04 | 0.20 | 92 | 1011.6 | |
| 20260506101356 | 17 | 0.0 | 1.6 | 0.00 | 1.04 | 0.20 | 92 | 1011.7 | |
| 20260506100316 | 17 | 0.0 | 1.6 | 0.00 | 1.04 | 0.20 | 91 | 1011.8 | |
| 20260506095316 | 17 | 248 | 1.6 | 3.2 | 0.00 | 1.04 | 0.20 | 91 | 1011.8 |
| 20260506094316 | 17 | 0.0 | 1.6 | 0.00 | 1.04 | 0.20 | 91 | 1011.8 | |
| 20260506093315 | 17 | 0.0 | 1.6 | 0.00 | 1.04 | 0.20 | 93 | 1011.9 | |
| 20260506092316 | 17 | 0.0 | 0.0 | 0.00 | 1.04 | 0.20 | 94 | 1012.0 | |
| 20260506091355 | 17 | 0.0 | 1.6 | 0.00 | 1.04 | 0.20 | 95 | 1011.9 | |
| 20260506090315 | 16 | 0.0 | 1.6 | 0.00 | 1.04 | 0.20 | 96 | 1011.7 | |
| 20260506085316 | 16 | 0.0 | 1.6 | 0.03 | 1.04 | 0.20 | 96 | 1011.6 | |
| 20260506084356 | 16 | 0.0 | 0.0 | 0.08 | 1.04 | 0.20 | 96 | 1011.7 | |
| 20260506083356 | 16 | 0.0 | 1.6 | 0.15 | 1.04 | 0.20 | 97 | 1011.8 | |
| 20260506082315 | 15 | 0.0 | 1.6 | 0.15 | 1.04 | 0.20 | 96 | 1011.6 | |
| 20260506082016 | 15 | 0.0 | 1.6 | 0.15 | 1.04 | 0.20 | 97 | 1011.6 | |
| 20260506081015 | 15 | 0.0 | 1.6 | 0.18 | 1.04 | 0.20 | 96 | 1011.7 | |
| 20260506073015 | 15 | 0.0 | 1.6 | 0.05 | 0.89 | 0.05 | 94 | 1011.6 | |
| 20260506072016 | 15 | 0.0 | 0.0 | 0.05 | 0.89 | 0.05 | 93 | 1011.7 | |
| 20260506071015 | 15 | 0.0 | 3.2 | 0.03 | 0.86 | 0.03 | 93 | 1011.7 | |
| 20260506062015 | 15 | 90 | 1.6 | 3.2 | 0.00 | 0.84 | 0.00 | 94 | 1011.9 |
| 20260506061055 | 15 | 90 | 1.6 | 4.8 | 0.00 | 0.84 | 0.00 | 94 | 1011.7 |
| 20260506051015 | 15 | 68 | 3.2 | 8.0 | 0.00 | 0.84 | 0.00 | 94 | 1011.8 |
| 20260506045015 | 14 | 45 | 1.6 | 6.4 | 0.00 | 0.84 | 0.00 | 94 | 1011.7 |
| 20260506044015 | 14 | 68 | 1.6 | 4.8 | 0.00 | 0.84 | 0.00 | 94 | 1011.7 |
| 20260506043055 | 14 | 90 | 1.6 | 3.2 | 0.00 | 0.84 | 0.00 | 94 | 1011.7 |
| 20260506042015 | 13 | 0.0 | 1.6 | 0.00 | 0.84 | 0.00 | 95 | 1011.7 | |
| 20260506041055 | 13 | 0.0 | 1.6 | 0.00 | 0.84 | 0.00 | 95 | 1011.9 | |
| 20260506040055 | 13 | 45 | 1.6 | 3.2 | 0.00 | 0.84 | 0.00 | 95 | 1011.8 |
| 20260506035015 | 13 | 68 | 1.6 | 3.2 | 0.00 | 0.84 | 0.00 | 96 | 1012.1 |
| 20260506034034 | 13 | 0.0 | 0.0 | 0.00 | 0.84 | 0.00 | 96 | 1012.1 | |
| 20260506033055 | 13 | 45 | 1.6 | 1.6 | 0.00 | 0.84 | 0.00 | 96 | 1012.1 |
| 20260506032016 | 13 | 68 | 1.6 | 4.8 | 0.00 | 0.84 | 0.00 | 96 | 1012.2 |
| 20260506031017 | 13 | 0.0 | 0.0 | 0.00 | 0.84 | 0.00 | 96 | 1012.3 | |
| 20260506030017 | 13 | 0.0 | 0.0 | 0.00 | 0.84 | 0.00 | 96 | 1012.2 | |
| 20260506025017 | 13 | 90 | 1.6 | 3.2 | 0.00 | 0.84 | 0.00 | 96 | 1012.3 |
| 20260506024017 | 13 | 0.0 | 1.6 | 0.00 | 0.84 | 0.00 | 96 | 1012.4 | |
| 20260506023017 | 13 | 0.0 | 1.6 | 0.00 | 0.84 | 0.00 | 96 | 1012.4 | |
| 20260506022017 | 13 | 0.0 | 1.6 | 0.00 | 0.84 | 0.00 | 96 | 1012.6 | |
| 20260506021055 | 13 | 0.0 | 1.6 | 0.00 | 0.84 | 0.00 | 96 | 1012.6 | |
| 20260506020018 | 13 | 0.0 | 0.0 | 0.00 | 0.84 | 0.00 | 96 | 1012.7 | |
| 20260506015055 | 13 | 0.0 | 1.6 | 0.00 | 0.84 | 0.00 | 96 | 1012.8 | |
| 20260506014017 | 13 | 90 | 1.6 | 1.6 | 0.00 | 0.84 | 0.00 | 96 | 1012.6 |
| 20260506013015 | 13 | 0.0 | 1.6 | 0.00 | 0.84 | 0.00 | 96 | 1012.8 | |
| 20260506012017 | 13 | 0.0 | 1.6 | 0.00 | 0.84 | 0.00 | 96 | 1012.7 | |
| 20260506011017 | 13 | 0.0 | 4.8 | 0.00 | 0.84 | 0.00 | 96 | 1012.8 | |
| 20260506010017 | 13 | 0.0 | 1.6 | 0.00 | 0.84 | 0.00 | 96 | 1012.6 | |
| 20260506005017 | 13 | 0.0 | 1.6 | 0.00 | 0.84 | 0.00 | 96 | 1012.6 | |
| 20260506004057 | 13 | 0.0 | 0.0 | 0.00 | 0.84 | 0.00 | 96 | 1012.8 | |
| 20260506003017 | 13 | 0.0 | 0.0 | 0.00 | 0.84 | 0.00 | 96 | 1012.8 | |
| 20260506002017 | 13 | 0.0 | 0.0 | 0.00 | 0.84 | 0.00 | 97 | 1012.9 | |
| 20260506001017 | 13 | 0.0 | 0.0 | 0.00 | 0.84 | 0.00 | 96 | 1012.9 | |
| 20260506000017 | 13 | 0.0 | 0.0 | 0.00 | 0.84 | 0.00 | 96 | 1012.9 | |
| 20260505235017 | 13 | 0.0 | 0.0 | 0.00 | 0.84 | 0.00 | 96 | 1013.1 | |
| 20260505234017 | 13 | 0.0 | 0.0 | 0.00 | 0.84 | 0.00 | 96 | 1013.1 | |
| 20260505233057 | 13 | 0.0 | 0.0 | 0.00 | 0.84 | 0.00 | 97 | 1013.4 | |
| 20260505232017 | 13 | 0.0 | 0.0 | 0.00 | 0.84 | 0.00 | 97 | 1013.6 | |
| 20260505231057 | 13 | 0.0 | 1.6 | 0.00 | 0.84 | 0.00 | 97 | 1013.7 | |
| 20260505230017 | 13 | 0.0 | 0.0 | 0.00 | 0.84 | 0.00 | 97 | 1013.7 | |
| 20260505225017 | 13 | 0.0 | 1.6 | 0.00 | 0.84 | 0.00 | 97 | 1013.8 |